Hourly Data Report for September 19, 2017

All times are specified in Local Standard Time (LST). Add 1 hour to adjust for Daylight Saving Time where and when it is observed.

BAS CARAQUET
NEW BRUNSWICK

47°48'08.000" N
64°50'00.000" W
5.00 m
8100467
71598
WXS

Download Data

Hourly Data (September 2017)
Hourly Data Report for September 19, 2017
Temp Definition
°C
Dew Point Temp Definition
°C
Rel Hum Definition
%
Wind Dir Definition
10's deg

Wind Spd Definition
km/h
Visibility Definition
km
Stn Press Definition
kPa
Hmdx Definition


Wind Chill Definition


Weather Definition


TIME
00:00 14.1 13.8 98 6 2   102.39     LegendNANA
01:00 14.0 13.9 99 0 1   102.36     LegendNANA
02:00 14.0 13.9 99 0 1   102.32     LegendNANA
03:00 13.9 13.8 100 4 2   102.31     LegendNANA
04:00 13.9 13.9 100 6 2   102.28     LegendNANA
05:00 13.9 13.9 100 13 3   102.29     LegendNANA
06:00 14.1 14.0 100   0   102.32     LegendNANA
07:00 14.6 14.5 100 15 1   102.32     LegendNANA
08:00 15.6 15.5 100 18 5   102.30     LegendNANA
09:00 16.8 16.7 100 18 7   102.28     LegendNANA
10:00 18.8 16.7 87 20 8   102.29     LegendNANA
11:00 19.8 16.5 81 21 10   102.25     LegendNANA
12:00 19.9 16.6 82 21 8   102.22     LegendNANA
13:00 18.1 14.9 82 35 7   102.16     LegendNANA
14:00 18.5 15.3 82 3 4   102.10     LegendNANA
15:00 19.3 16.5 84 17 12   102.04     LegendNANA
16:00 20.2 16.6 79 17 14   102.00 25   LegendNANA
17:00 19.3 16.2 82 17 11   101.98     LegendNANA
18:00 18.1 16.5 90 17 11   101.96     LegendNANA
19:00 17.1 16.2 95 16 8   101.96     LegendNANA
20:00 16.5 16.0 97 17 10   101.96     LegendNANA
21:00 16.2 15.9 98 18 8   101.96     LegendNANA
22:00 16.4 16.2 99 18 9   101.93     LegendNANA
23:00 16.8 16.6 98 20 10   101.88     LegendNANA

Notes on Data Quality.

Legend

  • E = Estimated
  • M = Missing
  • NA = Not Available
  • ‡ = Partner data that is not subject to review by the National Climate Archives
Date modified: